Location: Austin
(30.3000°N, 97.7500°W)
Time: 01:15:09
(UTC-05:00)

Cosmos 1461 - Pass Details

Date: 15 May 2024
Orbit: 499 x 586 km, 65.0° (Epoch: 19 May)

Event Time Altitude Azimuth Distance (km) Brightness Sun altitude
Rises 21:15:46 0° 320° (NW) 2,587 7.8 -11.9°
Reaches altitude 10° 21:18:07 10° 309° (NW) 1,701 6.8 -12.3°
Maximum altitude 21:21:24 29° 248° (WSW) 944 4.4 -12.9°
Drops below altitude 10° 21:24:44 10° 187° (S) 1,707 5.1 -13.5°
Enters shadow 21:25:43 - 181° (S) 2,069 5.5 -13.7°
